Regional Weather Roundup
Issued by NWS

Home | Current Version | Previous Version | Graphics & Text | Print | Product List | Glossary On
Versions: 1 2 3 4 5 6 7 8 9 10 11 12 13 14 15 16 17 18 19 20 21 22 23 24 25 26 27 28 29 30 31 32 33 34 35 36 37 38 39 40 41 42 43 44 45 46 47 48 49 50
000
ASUS45 KCYS 260710
RWRWY

WYOMING REGIONAL WEATHER ROUNDUP
NATIONAL WEATHER SERVICE CHEYENNE WY
1200 AM MST WED NOV 26 2014

NOTE:  "FAIR" INDICATES FEW OR NO CLOUDS BELOW 12,000 FEET
WITH NO SIGNIFICANT WEATHER AND/OR OBSTRUCTIONS TO VISIBILITY.

WYZ001-260800-
YELLOWSTONE NATIONAL PARK

CITY           SKY/WX    TMP DP  RH WIND       PRES   REMARKS
LK YELLOWSTONE   N/A     30  28  92 CALM      30.08S
W YELLOWSTONE  NOT AVBL

$$
WYZ002>013-054>058-071-098>099-260800-
NORTHERN WYOMING

CITY           SKY/WX    TMP DP  RH WIND       PRES   REMARKS
JACKSON        CLOUDY    37  36  93 SW10      30.09R WCI  30
CODY           CLOUDY    25  25 100 S3        30.14S
GREYBULL       CLOUDY    29  25  85 NW16      30.17R WCI  17
WORLAND        LGT SNOW  27  26  96 W3        30.18R FOG
SHERIDAN       CLOUDY    29  22  75 NW15      30.15R WCI  18
BUFFALO        CLOUDY    27  18  69 N10       30.12R WCI  17
GILLETTE       CLOUDY    26  23  88 NW14      30.12R WCI  14
HULETT           N/A    N/A N/A N/A MISG        N/A
NEWCASTLE      CLOUDY    28  23  80 NW17      30.10R WCI  16

$$
WYZ014>020-022>026-101>103-260800-
CENTRAL WYOMING

CITY           SKY/WX    TMP DP  RH WIND       PRES   REMARKS
BIG PINEY      CLOUDY   N/A N/A N/A VRB3      30.11R
PINEDALE       CLOUDY    32  32 100 NW8       30.13R WCI  25
DUBOIS         FLURRIES  25  23  93 S15       30.05R WCI  12
LANDER         LGT SNOW  27  25  92 CALM      30.12R FOG
RIVERTON       LGT SNOW  26  24  92 E3        30.13R FOG
CASPER         LGT SNOW  24  21  88 CALM      30.15R FOG
DOUGLAS        CLOUDY   N/A N/A N/A NW16      30.14R

$$
WYZ021-027>030-104>119-260800-
SOUTHERN WYOMING

CITY           SKY/WX    TMP DP  RH WIND       PRES   REMARKS
EVANSTON       CLOUDY    38  31  76 W24       30.25R WCI  27
FORT BRIDGER   CLOUDY    39  34  82 W24G33    30.25R WCI  28
ROCK SPRINGS   CLOUDY    37  31  78 W35G44    30.12S WCI  24
DIXON          CLOUDY    36  28  72 W8        30.19R WCI  30
RAWLINS        CLOUDY    35  31  85 W23G36    30.06S WCI  23
SARATOGA       CLOUDY    37  32  81 W26G37    30.08S WCI  26
LARAMIE        LGT SNOW  21  19  92 N14       30.03R FOG     WCI   8
CHEYENNE       LGT SNOW  23  18  81 N18       30.06S WCI   9
TORRINGTON     CLOUDY    29  24  82 NW17G25   30.08R WCI  17
PINE BLUFFS    FLURRIES  27  23  86 NW21G26   30.08R WCI  13

$$


USA.gov is the U.S. government's official web portal to all federal, state and local government web resources and services.